Theta_e
304 307 318 321 318 312 316 317 315 318 321 318 320 320 320 323 324 323 314 314 314 330 335 337 339 341 341 340 338 336 335 334 333 331 329 326 327 327 325 325 326 331 331 330 324 319 314 315 317
305 313 320 322 313 315 313 312 313 313 314 316 318 319 319 319 316 312 315 311 313 322 332 337 338 338 340 339 339 337 336 334 333 330 326 325 327 331 326 329 333 332 331 328 325 324 324 323 326
313 319 321 316 311 309 309 313 312 313 314 314 314 316 319 316 313 309 308 310 312 316 327 333 339 338 338 339 338 339 337 335 332 330 328 326 325 329 331 331 334 333 332 330 328 329 329 328 328
315 315 317 312 313 311 311 310 311 311 314 314 313 311 315 315 312 308 309 312 314 314 318 330 335 340 339 337 337 337 336 335 332 329 328 327 326 329 328 331 334 334 333 333 329 331 331 329 329
315 316 311 309 310 310 306 308 309 308 308 309 311 308 313 310 308 309 310 310 309 307 312 314 328 333 337 339 337 337 334 333 330 330 327 326 327 332 331 327 333 333 333 333 332 328 328 330 330
311 309 307 308 309 307 306 307 307 305 306 307 307 307 310 310 311 306 306 308 306 305 305 306 309 321 331 337 339 339 337 333 331 328 329 327 329 333 331 328 330 333 332 331 331 328 325 325 326
309 305 305 308 307 307 307 305 304 304 304 303 305 305 309 308 303 303 304 304 304 305 305 306 305 307 313 324 333 338 338 337 332 328 328 330 332 333 332 331 328 330 331 331 330 324 326 327 326
309 304 307 305 304 306 304 304 303 302 302 303 304 303 303 303 304 304 304 303 303 304 305 305 305 305 306 308 319 330 337 337 337 331 329 328 331 332 332 332 331 329 330 329 328 324 329 329 327
305 301 302 302 302 303 302 300 302 302 302 303 302 302 303 304 304 304 304 304 304 303 304 304 304 304 304 304 306 315 328 335 337 336 331 329 330 331 331 332 331 330 330 327 324 328 327 325 325
303 300 303 301 301 300 301 301 302 302 302 303 304 304 304 304 304 304 304 304 304 304 304 303 303 303 304 304 303 305 313 324 332 336 336 331 328 331 331 331 331 330 330 327 323 328 327 325 326
302 302 301 302 303 302 302 302 303 303 301 303 304 304 304 304 304 304 303 303 303 303 302 302 302 303 303 304 303 303 304 312 320 330 335 334 333 328 329 330 330 331 331 328 323 329 328 325 325
304 303 303 302 304 303 302 303 303 303 303 304 304 304 304 303 303 303 302 301 301 301 301 300 300 300 301 301 303 302 303 303 310 319 329 335 333 335 330 328 328 330 331 328 324 330 328 325 324
304 304 304 304 304 304 304 303 302 303 303 304 304 304 303 303 303 302 302 301 300 299 298 298 298 298 298 300 301 302 302 303 303 309 319 328 334 332 333 332 329 329 330 328 324 330 329 326 325
303 303 303 304 304 304 303 302 301 303 304 304 304 304 303 303 302 302 302 299 298 298 297 297 296 296 297 297 299 301 302 302 302 303 308 318 327 331 332 333 333 331 331 329 325 329 329 326 325
303 303 303 304 304 303 302 301 300 304 304 304 303 303 302 302 302 301 299 298 298 297 296 296 296 295 295 296 297 299 302 303 302 302 302 307 315 325 331 333 333 331 332 332 330 330 329 326 325
304 302 302 304 304 304 302 301 301 304 303 303 303 302 302 301 300 299 298 297 297 296 296 295 295 295 295 295 296 298 299 302 303 302 302 302 306 310 322 328 330 328 329 331 332 330 329 327 325
299 296 302 302 304 303 302 302 302 303 303 302 301 301 301 299 299 298 297 297 297 296 295 294 294 294 294 295 295 297 299 300 302 302 302 302 302 305 307 316 322 328 328 331 332 331 330 327 325
296 297 302 302 303 303 301 300 301 302 302 301 300 300 299 298 298 297 297 296 295 294 293 293 293 293 294 294 295 297 299 299 300 302 303 303 302 303 305 308 315 322 327 328 326 325 328 328 326
302 302 300 301 303 301 301 300 300 301 301 299 300 299 299 298 297 297 296 294 293 292 292 292 292 292 293 293 294 296 298 301 301 301 302 303 303 302 303 305 311 320 325 327 328 328 326 326 326
301 296 296 300 301 300 299 300 300 300 299 300 299 299 298 297 297 295 295 293 292 291 291 291 291 292 293 294 294 295 296 299 301 302 305 304 304 303 304 305 310 316 321 325 327 328 327 326 326
300 297 297 299 299 298 299 297 301 300 299 300 299 298 297 296 295 295 293 291 290 290 290 290 290 291 293 294 295 295 296 298 300 301 305 307 306 306 306 306 310 319 323 323 326 326 327 327 326
296 301 300 299 293 294 298 295 299 300 300 299 297 297 295 295 294 293 291 290 289 289 288 289 290 291 292 295 295 296 297 298 299 302 303 305 309 308 308 308 307 311 320 325 325 326 327 327 324
298 299 300 300 289 294 294 293 298 300 300 297 295 295 295 294 293 291 289 288 288 288 288 288 289 290 292 294 296 297 299 299 300 302 304 305 307 306 306 311 311 314 313 319 323 324 325 326 326
300 297 296 295 289 291 291 292 297 298 299 296 295 295 294 293 291 289 288 288 287 288 288 288 289 291 293 294 296 299 300 302 301 302 305 308 307 309 309 309 310 313 315 320 321 321 322 322 325
295 289 288 290 291 296 287 295 297 297 295 295 294 294 293 292 290 289 288 287 287 287 287 288 288 291 293 294 296 299 301 302 302 303 306 306 308 309 310 309 311 315 315 317 321 323 324 325 326
297 291 289 288 293 293 286 294 296 296 295 294 294 293 292 291 291 289 288 287 286 286 287 286 288 290 292 294 295 297 300 303 303 304 306 306 308 308 308 308 308 311 315 316 318 324 325 323 323
294 293 295 287 284 292 290 292 296 295 289 292 293 293 292 291 291 289 288 287 286 285 286 286 287 289 292 294 294 296 299 302 305 306 307 307 307 308 308 308 308 308 313 315 318 319 321 324 325
293 295 291 287 290 290 290 287 297 290 288 288 290 292 292 291 290 290 289 287 286 285 285 286 286 288 290 293 295 296 299 301 302 305 306 307 306 307 307 307 307 308 309 313 315 315 320 321 324
290 290 289 288 293 290 290 293 289 289 285 286 289 292 291 290 289 288 290 287 286 285 285 285 285 286 288 291 294 297 298 299 299 302 301 302 302 301 302 306 307 307 309 310 312 316 321 323 323
293 291 294 290 287 292 294 297 285 285 285 290 292 293 292 291 288 287 289 288 286 285 285 285 285 285 287 290 293 295 297 298 298 299 299 301 302 303 304 306 307 308 309 311 312 316 321 321 321
Wind_Speed
6 10 12 6 3 4 3 6 3 6 4 4 7 6 4 11 3 2 8 9 11 8 10 3 5 9 10 12 14 14 13 13 13 13 12 8 8 10 13 14 13 13 12 9 7 7 9 12 14
6 12 6 1 4 2 5 4 8 4 3 6 8 8 6 4 7 6 6 8 10 11 9 6 3 9 11 12 14 16 14 14 14 13 12 11 9 11 14 14 15 13 12 8 6 8 9 11 12
12 8 2 3 3 4 3 2 4 6 13 9 4 10 5 3 7 5 2 7 9 11 8 8 4 9 12 12 15 16 16 16 16 15 14 13 12 12 13 14 16 15 12 9 8 10 11 12 15
7 3 2 4 6 6 4 3 5 4 9 11 7 6 5 6 3 2 5 9 12 13 12 8 10 7 15 17 17 16 18 18 17 17 16 16 15 15 15 16 18 16 13 12 11 12 12 14 15
4 1 1 2 5 1 6 8 11 6 6 14 8 3 5 7 7 2 9 13 15 15 14 11 10 13 12 12 16 17 18 20 19 19 19 19 18 18 17 18 19 18 16 15 14 14 14 15 17
1 1 3 3 4 6 3 14 5 9 12 8 8 3 3 7 5 13 15 15 17 15 18 18 13 13 15 14 15 19 20 21 21 21 20 21 20 21 19 18 20 20 19 18 17 15 17 18 18
4 3 3 3 4 4 3 4 7 4 7 7 2 1 3 2 17 19 17 17 13 13 14 17 19 15 15 15 15 18 23 22 23 23 23 22 22 23 22 21 22 23 22 20 19 18 19 17 18
2 4 3 3 5 2 6 4 11 10 2 7 0 2 4 12 12 14 18 19 15 11 11 14 19 20 17 18 17 16 17 25 25 25 25 26 24 24 24 24 24 25 25 24 22 21 21 19 19
2 4 1 5 5 4 11 7 8 10 6 7 4 10 13 13 18 21 21 21 18 17 17 18 20 21 21 19 19 18 18 22 27 27 28 27 28 27 27 26 27 26 27 26 26 25 22 21 20
5 4 1 3 1 2 10 10 13 7 17 9 12 14 18 20 22 19 17 19 22 23 23 23 23 22 20 20 20 20 20 20 22 26 30 31 32 31 31 30 28 29 29 27 28 29 25 23 22
4 3 2 4 6 7 7 9 12 8 6 2 20 17 18 21 20 13 14 17 21 26 28 28 27 26 25 25 23 21 22 22 21 24 24 34 33 34 34 33 32 32 31 31 32 32 29 27 24
3 4 3 4 7 6 7 12 11 14 14 19 18 17 17 12 11 12 16 20 25 29 31 30 27 27 27 26 28 27 23 23 23 23 28 21 35 37 36 37 38 37 36 35 36 37 33 29 26
3 3 6 6 11 8 10 11 11 26 21 8 8 10 9 13 13 18 20 22 24 24 25 27 28 29 29 28 28 29 28 25 26 24 25 27 24 37 40 40 41 41 41 40 41 41 37 33 30
2 6 12 7 7 6 5 8 6 10 6 11 16 14 16 12 15 19 22 21 24 28 32 35 38 42 39 31 28 29 31 29 27 29 26 26 28 28 38 41 45 46 45 43 45 44 41 36 33
3 4 7 7 5 3 3 8 6 12 8 10 11 13 9 11 14 18 18 23 28 33 38 42 48 48 43 36 30 29 31 32 32 30 30 29 28 29 37 31 37 51 51 45 47 45 42 39 36
4 4 5 3 4 3 5 8 10 18 12 19 21 4 8 11 16 16 20 25 29 38 44 49 50 42 37 33 31 30 30 33 36 34 32 32 31 30 32 36 24 36 39 54 50 48 47 43 40
7 1 3 9 8 4 3 13 15 12 21 10 2 2 6 10 12 19 24 32 39 45 49 47 42 37 36 35 34 31 30 30 35 36 34 31 32 31 30 33 30 21 38 34 49 49 49 46 43
3 2 3 5 5 9 11 17 23 20 16 7 4 2 4 11 18 25 34 38 42 44 43 41 41 36 34 32 33 32 29 29 31 35 36 33 31 30 30 29 28 27 30 30 34 35 34 42 43
3 3 6 7 8 6 13 19 22 20 8 9 5 0 7 15 24 31 36 40 42 36 38 40 41 37 30 34 37 36 33 26 27 28 33 34 31 28 29 29 26 24 23 26 39 39 45 31 40
3 2 6 6 3 7 11 16 17 8 8 11 6 5 11 24 31 33 40 43 38 37 36 37 37 31 27 31 31 30 35 35 29 28 25 27 28 26 26 27 27 25 25 28 27 38 42 49 40
3 3 3 7 5 5 6 8 5 3 9 8 3 4 21 29 28 36 39 35 36 36 36 33 31 32 28 27 28 29 29 33 35 30 29 23 27 24 23 24 27 25 24 29 30 35 39 42 44
2 1 4 8 5 2 5 5 6 3 5 4 4 18 29 27 30 35 36 37 35 35 33 30 26 26 28 24 26 27 28 32 34 29 29 20 20 24 22 21 26 32 30 28 29 38 40 43 36
7 7 10 6 3 4 6 3 7 1 4 1 8 23 28 25 32 35 34 34 34 32 31 27 26 26 25 24 23 25 28 32 31 28 25 24 25 24 22 20 22 26 33 34 32 33 35 35 40
5 5 6 4 4 2 4 4 7 4 3 2 9 22 23 30 32 30 31 32 33 30 28 26 25 24 23 22 22 23 23 25 28 24 23 17 21 21 22 23 22 23 28 31 35 38 39 38 44
8 6 4 6 4 5 3 1 10 3 4 3 8 18 22 28 30 32 35 33 33 30 28 26 25 25 21 21 20 17 11 19 21 20 19 21 21 18 20 20 21 17 24 29 30 38 40 40 45
3 5 5 4 3 6 2 6 6 5 5 3 10 15 23 29 31 33 35 34 32 29 27 26 26 23 18 18 18 15 6 5 17 19 17 19 17 18 17 20 21 26 17 28 32 30 36 39 40
3 2 3 2 1 2 4 8 7 3 4 8 13 21 23 26 30 32 34 35 31 29 27 26 23 22 17 15 17 14 9 4 9 14 17 17 15 13 16 19 20 26 31 25 25 29 34 35 44
5 2 3 3 3 6 6 6 8 6 7 6 9 17 18 21 28 33 34 33 30 28 26 22 22 21 17 14 14 13 11 9 10 16 16 16 15 15 14 15 19 17 24 32 29 26 39 39 43
1 2 2 3 4 4 4 7 7 8 7 6 9 16 16 20 27 30 34 32 30 27 24 22 20 18 18 14 11 10 10 12 15 15 14 13 12 15 13 14 16 16 20 26 29 26 38 42 42
5 7 5 4 6 4 3 10 4 7 7 11 14 17 16 22 26 29 31 31 31 28 25 22 20 19 17 14 10 8 10 12 13 13 13 13 11 11 11 12 15 15 21 22 23 25 37 34 32
Wind_Direction
145 151 139 121 76 75 246 257 254 7 42 0 23 43 100 49 31 163 127 12 353 357 353 337 204 189 226 236 224 219 215 216 219 222 228 221 210 195 187 185 186 184 190 197 210 217 194 186 191
128 140 122 47 95 109 266 307 99 68 51 24 46 8 41 82 61 84 195 345 350 1 356 341 221 214 208 238 234 228 226 224 223 223 227 228 217 207 199 193 189 191 190 198 196 174 167 168 158
128 124 74 108 139 197 215 29 97 103 68 71 42 45 38 36 63 89 7 322 356 358 4 332 322 232 222 221 247 239 233 232 228 227 225 227 221 214 213 206 200 196 199 203 191 185 176 173 162
128 125 251 110 218 269 62 334 34 12 47 59 45 51 67 359 89 103 325 342 354 350 358 337 295 289 228 221 222 243 245 236 234 231 228 229 229 219 218 218 210 207 208 211 198 201 194 186 187
95 205 63 201 235 178 37 21 31 20 43 39 51 2 97 100 119 328 319 329 342 343 333 340 306 291 296 250 232 233 237 242 239 236 233 231 232 220 219 221 217 215 215 210 206 209 212 208 203
38 91 65 232 243 105 58 33 70 30 19 27 48 32 102 143 328 335 327 328 336 335 328 316 312 304 287 270 264 237 240 236 241 237 235 234 230 224 222 219 218 220 223 221 216 225 227 228 218
110 89 214 298 263 75 7 20 60 42 3 40 23 353 140 32 340 324 323 329 333 327 324 315 306 300 300 293 275 258 239 243 236 234 236 236 234 229 228 223 219 222 225 227 228 238 222 225 225
88 101 341 4 324 86 17 31 18 48 339 321 53 154 299 327 340 332 311 306 316 322 311 311 305 300 293 293 287 269 264 239 240 236 232 235 235 235 235 230 226 225 226 227 233 235 222 225 231
86 65 20 346 14 286 4 17 5 330 291 314 267 293 306 312 313 320 311 309 303 301 304 304 303 303 295 286 285 279 267 262 241 238 237 233 235 235 235 234 231 231 228 229 232 223 222 232 234
65 92 140 24 43 344 331 3 336 326 312 303 307 306 312 317 329 333 330 320 311 310 309 308 303 300 297 287 280 277 272 263 260 248 237 236 235 233 235 236 234 234 232 232 231 222 220 229 227
6 108 351 38 21 347 332 334 332 329 315 243 316 318 313 320 329 327 325 322 317 307 309 309 308 303 301 297 288 276 273 266 258 253 244 241 239 236 236 236 236 232 232 231 229 223 222 227 225
93 78 44 302 326 323 313 313 308 275 268 295 299 306 319 346 333 312 319 324 320 317 312 312 313 309 301 295 291 287 278 269 260 252 253 251 241 240 237 237 236 236 231 230 227 224 224 226 224
50 328 310 287 302 289 293 277 277 286 296 300 297 303 315 316 300 302 313 320 321 324 326 323 321 320 317 302 288 282 277 272 266 256 247 247 250 243 242 240 239 237 234 232 227 225 225 225 223
282 286 280 289 243 244 270 281 318 289 266 275 298 287 299 290 303 305 313 325 323 321 319 317 315 314 310 302 293 280 277 268 264 261 251 246 248 250 239 246 243 239 234 231 227 224 223 225 224
277 329 329 225 222 233 348 316 209 322 273 276 267 278 276 299 306 318 327 325 319 313 314 312 312 309 304 296 288 282 269 269 263 258 256 249 248 247 242 240 246 245 232 231 225 223 224 224 225
342 38 9 299 181 234 91 271 269 295 279 294 297 263 288 306 323 330 323 316 311 310 311 309 308 305 301 296 286 277 273 262 262 260 257 253 250 251 247 250 265 254 230 228 224 223 223 224 226
10 260 308 323 319 358 190 292 271 277 285 293 244 236 322 338 327 322 315 311 309 309 309 308 308 305 299 294 288 281 272 266 258 257 256 254 253 253 254 255 255 252 245 231 219 214 228 223 225
264 344 284 272 287 321 290 275 286 294 280 245 156 31 358 327 321 314 310 308 309 310 308 305 306 304 296 291 284 277 274 270 263 257 252 253 255 254 255 254 255 255 254 243 230 234 219 227 236
250 251 259 260 270 329 277 284 284 293 192 172 165 262 318 316 317 312 309 313 315 309 305 305 306 307 301 291 288 279 273 269 269 259 253 251 253 255 254 250 244 247 240 239 232 229 220 223 220
242 256 283 290 343 324 296 286 285 249 207 188 166 314 322 329 319 317 316 315 309 306 303 304 306 307 297 293 296 290 273 267 263 253 249 248 255 254 255 245 241 238 243 241 245 225 220 220 225
286 192 279 270 333 270 292 294 324 31 125 154 206 333 337 330 320 318 318 313 311 309 308 306 298 298 298 299 298 293 285 269 262 256 243 245 245 249 248 246 232 231 232 236 230 221 217 218 224
299 244 309 312 34 274 62 277 297 199 182 158 22 347 335 327 319 322 321 320 318 315 312 308 304 304 299 299 291 286 279 275 254 260 248 251 242 246 254 249 235 231 231 229 231 229 227 212 207
242 325 292 289 150 16 326 60 269 185 226 202 352 335 334 320 324 325 324 322 321 320 318 309 303 299 296 296 285 279 283 274 259 259 245 240 240 251 245 241 241 235 233 232 231 228 223 222 216
302 329 22 69 101 4 245 114 280 234 202 343 319 328 324 323 329 328 328 331 327 323 319 315 310 306 302 298 285 272 305 260 249 248 237 248 235 236 237 250 243 241 238 233 231 235 235 231 223
37 43 354 355 6 227 243 346 244 213 131 190 284 315 327 334 334 338 339 335 332 328 324 318 314 309 304 300 288 281 325 250 252 227 242 247 233 232 241 241 237 241 230 237 236 234 232 224 213
45 123 141 254 285 271 18 227 251 181 146 321 322 332 341 346 347 346 343 340 336 330 327 319 316 313 307 305 295 296 310 220 238 239 232 223 225 234 242 241 246 236 236 232 230 227 229 228 224
267 71 164 111 137 3 264 288 296 181 314 333 323 352 344 347 351 350 347 345 338 333 326 321 319 315 311 309 313 313 302 236 204 205 208 212 214 221 238 246 251 246 232 235 239 236 232 222 224
143 168 32 11 344 303 286 280 243 266 264 305 337 313 327 346 354 355 350 347 344 335 329 325 320 314 313 311 315 319 315 273 242 223 220 217 226 229 237 249 253 265 248 235 237 259 228 222 211
23 345 12 129 155 202 294 265 227 222 207 239 281 292 323 340 351 349 349 349 349 345 341 332 326 321 314 306 307 304 295 279 270 253 247 237 244 249 246 252 261 274 268 249 243 264 221 214 210
165 190 161 132 270 228 199 268 237 194 204 214 269 299 322 346 352 347 348 350 352 352 350 345 338 332 327 316 315 304 281 268 269 267 255 246 245 244 254 251 255 268 265 249 242 269 208 208 211